FW3335 Weather Reports


time (UTC)temp
C
wind
direction
speed
KPH
gust
KPH
rain 1hr
cm
rain 24hr
cm
rain mn
cm
humidity
%
barometer
mb
20260508043019 5 301 6.4 22.5 0.00 0.48 0.48 49 1025.1
20260508041520 5 240 4.8 20.9 0.00 0.48 0.48 49 1024.8
20260508040017 5 315 3.2 16.1 0.00 0.48 0.48 49 1025.2
20260508034517 5 217 0.0 3.2 0.00 0.48 0.48 50 1025.2
20260508033015 6 217 0.0 6.4 0.00 0.48 0.48 48 1025.0
20260508031515 6 219 6.4 17.7 0.00 0.48 0.48 46 1025.0
20260508030015 6 213 1.6 11.3 0.00 0.48 0.48 46 1025.0
20260508024533 6 215 1.6 12.9 0.00 0.48 0.48 46 1024.9
20260508023014 6 206 3.2 9.7 0.00 0.48 0.48 44 1025.0
20260508021514 6 253 4.8 16.1 0.00 0.48 0.48 43 1024.9
20260508020013 6 254 3.2 16.1 0.00 0.53 0.48 44 1024.9
20260508014512 7 244 3.2 19.3 0.00 0.53 0.48 43 1024.8
20260508013014 7 215 3.2 8.0 0.00 0.53 0.48 41 1024.7
20260508011512 7 337 1.6 9.7 0.00 0.53 0.48 40 1024.6
20260508010011 8 211 0.0 12.9 0.00 0.64 0.48 41 1024.3
20260508004522 9 268 0.0 12.9 0.00 0.64 0.48 40 1024.3
20260508003008 9 37 0.0 9.7 0.00 0.64 0.48 41 1024.5
20260508001526 9 32 0.0 12.9 0.00 0.64 0.48 41 1024.6
20260508000007 8 273 6.4 19.3 0.00 0.79 0.48 36 1025.1
20260507234509 9 208 3.2 16.1 0.00 0.79 0.48 35 1024.6
20260507233006 9 284 0.0 19.3 0.00 0.79 0.48 39 1024.6
20260507231502 8 313 6.4 16.1 0.00 0.79 0.48 45 1024.9
20260507230001 8 286 0.0 9.7 0.00 0.97 0.48 45 1025.1
20260507224600 7 259 0.0 14.5 0.00 0.97 0.48 45 1025.2
20260507223058 8 211 6.4 17.7 0.00 0.97 0.48 41 1025.5
20260507221556 8 272 4.8 16.1 0.00 0.97 0.48 43 1025.5
20260507220057 7 209 3.2 16.1 0.00 0.97 0.48 44 1025.8
20260507214552 8 232 8.0 24.1 0.00 1.07 0.48 43 1026.3
20260507213050 8 184 1.6 11.3 0.00 1.07 0.48 41 1026.5
20260507211550 9 269 8.0 16.1 0.00 1.07 0.48 38 1026.7
20260507210101 9 230 8.0 27.4 0.00 1.07 0.48 38 1026.7
20260507204544 10 232 8.0 19.3 0.00 1.07 0.48 35 1027.1
20260507203109 10 212 6.4 17.7 0.00 1.07 0.48 35 1027.3
20260507201541 9 245 6.4 19.3 0.00 1.07 0.48 35 1027.4
20260507200041 10 223 9.7 16.1 0.03 1.07 0.48 35 1027.7
20260507194539 9 268 4.8 16.1 0.03 1.07 0.48 39 1027.9
20260507193040 7 272 9.7 19.3 0.05 1.07 0.48 40 1028.0
20260507191539 8 267 8.0 17.7 0.05 1.07 0.48 40 1028.2
20260507190034 8 204 9.7 16.1 0.05 1.07 0.46 39 1028.5
20260507184534 8 301 8.0 22.5 0.08 1.07 0.46 40 1028.7
20260507183033 7 229 6.4 14.5 0.10 1.04 0.43 42 1029.0
20260507181530 6 267 6.4 20.9 0.15 1.04 0.43 45 1029.1
20260507180029 6 211 3.2 14.5 0.18 1.02 0.41 47 1029.1
20260507174538 7 232 4.8 12.9 0.20 0.99 0.38 43 1029.2
20260507173049 8 213 0.0 14.5 0.20 0.94 0.33 42 1029.4
20260507171527 9 211 0.0 22.5 0.18 0.89 0.28 41 1029.8
20260507170024 10 208 3.2 14.5 0.18 0.84 0.23 38 1030.4
20260507164520 9 331 0.0 8.0 0.15 0.79 0.18 38 1030.5
20260507163015 7 293 0.0 4.8 0.10 0.71 0.13 43 1030.9
20260507161511 6 91 0.0 1.6 0.08 0.71 0.10 43 1031.4
20260507160009 5 92 0.0 3.2 0.05 0.66 0.05 48 1031.7
20260507154503 3 159 0.0 0.0 0.03 0.64 0.03 52 1032.3
20260507153101 1 160 0.0 0.0 0.03 0.64 0.03 61 1032.7
20260507151558 0 160 0.0 0.0 0.03 0.64 0.03 67 1033.3
20260507150055 0 159 0.0 1.6 0.00 0.61 0.00 65 1033.6
20260507144600 -1 159 0.0 6.4 0.00 0.61 0.00 72 1033.6
20260507143058 -3 299 0.0 0.0 0.00 0.61 0.00 84 1033.8
20260507141553 -6 299 0.0 0.0 0.00 0.61 0.00 86 1034.0
20260507140139 -7 299 0.0 0.0 0.00 0.61 0.00 85 1034.1
20260507134537 -8 299 0.0 0.0 0.00 0.61 0.00 84 1033.9
20260507133105 -10 299 0.0 0.0 0.00 0.61 0.00 83 1034.0
20260507131540 -10 299 0.0 0.0 0.00 0.61 0.00 82 1033.9
20260507130037 -11 299 0.0 0.0 0.00 0.61 0.00 81 1033.8
20260507124531 -11 299 0.0 0.0 0.00 0.61 0.00 80 1033.4
20260507123037 -11 299 0.0 0.0 0.00 0.61 0.00 80 1033.4
20260507121529 -11 299 0.0 0.0 0.00 0.61 0.00 80 1033.2
20260507120032 -11 299 0.0 0.0 0.00 0.61 0.00 80 1032.8
20260507114525 -11 299 0.0 0.0 0.00 0.61 0.00 79 1033.1
20260507113023 -11 299 0.0 0.0 0.00 0.61 0.00 79 1032.6
20260507111522 -11 299 0.0 0.0 0.00 0.61 0.00 79 1032.4
20260507110020 -11 299 0.0 0.0 0.00 0.61 0.00 79 1032.3
20260507104519 -11 299 0.0 0.0 0.00 0.61 0.00 79 1032.4
20260507103019 -11 299 0.0 0.0 0.00 0.61 0.00 79 1032.2
20260507101522 -11 299 0.0 0.0 0.00 0.61 0.00 79 1032.2
20260507100021 -11 299 0.0 0.0 0.00 0.61 0.00 79 1032.0
20260507094513 -11 299 0.0 0.0 0.00 0.61 0.00 79 1032.0
20260507093011 -11 299 0.0 0.0 0.00 0.61 0.00 79 1031.9
20260507091511 -11 299 0.0 0.0 0.00 0.61 0.00 79 1031.6
20260507090011 -10 299 0.0 0.0 0.00 0.61 0.00 79 1031.6
20260507084506 -10 299 0.0 0.0 0.00 0.61 0.00 79 1031.6
20260507083005 -10 299 0.0 0.0 0.00 0.61 0.00 79 1031.4
20260507081503 -10 299 0.0 0.0 0.00 0.61 0.00 79 1031.5
20260507080003 -10 299 0.0 0.0 0.00 0.61 0.00 79 1031.5
20260507074501 -10 299 0.0 0.0 0.00 0.61 0.00 79 1031.5
20260507073108 -10 299 0.0 0.0 0.00 0.61 0.00 78 1031.4
20260507071557 -9 299 0.0 0.0 0.00 0.61 0.00 78 1031.2
20260507070104 -9 299 0.0 0.0 0.00 0.61 0.00 77 1031.1
20260507064557 -8 299 0.0 0.0 0.00 0.61 0.00 77 1031.1
20260507063052 -8 299 0.0 0.0 0.00 0.61 0.00 76 1031.2
20260507061550 -8 299 0.0 0.0 0.00 0.61 0.00 76 1031.0
20260507060054 -7 299 0.0 0.0 0.00 0.61 0.00 75 1030.6
20260507054544 -7 299 0.0 0.0 0.00 0.61 0.61 75 1030.6
20260507053042 -7 299 0.0 0.0 0.00 0.61 0.61 74 1030.3
20260507051540 -6 299 0.0 0.0 0.00 0.61 0.61 73 1030.2
20260507050038 -6 299 0.0 0.0 0.00 0.61 0.61 73 1030.1
20260507044547 -5 299 0.0 0.0 0.00 0.61 0.61 72 1030.0